sat.trackr.live / text

‹ back to catalog

STARLINK-36478

NORAD 67351 · 2026-003T

PAYLOAD ACTIVE UNKNOWN

§ Identity

Operator
Country
US
Launch date
2026-01-09
Launch site
AFETR
Launch vehicle
Mass (kg)
RCS (m²)

Purposes: comms

External: N2YO · Heavens-Above · Gunter

§ Orbital elements

Epoch: 2026-05-25T00:49:53.092992Z

Period
94.27 min
Inclination
42.9990°
Eccentricity
0.0001613
Mean motion
15.27587165 rev/d
Perigee alt
481.9 km
Apogee alt
484.1 km
Semi-major
6,861.2 km
B*
5.4027e-4
RAAN
155.5783°
Arg perigee
253.4082°
Mean anomaly
106.6592°
Rev number
2,050

§ Raw data

STARLINK-364781 67351U 26003T   26145.03464228  .00014638  00000+0  54027-3 0  99922 67351  42.9990 155.5783 0001613 253.4082 106.6592 15.27587165 20509

JSON: /api/v1/satellites/67351 · /tle

For live sub-satellite position, see the globe view (requires WebGL).

§ Visibility from observer

Set your observer location to see the next 7 days of passes ≥ 10°. The values pass through the URL so the page stays shareable.

No JS? Fill the form by hand. The geolocation button needs JavaScript.